#timestamp,LO_Frequency,Hit,StdDev 
1587290415.8,286046971.4,N
1587290435.7,286046977.8,N
1587290455.5,286046971.3,N
1587290475.3,286046969.8,N
1587290495.2,286046970.9,N
1587290515.0,286046971.3,N
1587290515.9,286046971.3,Y
1587290535.8,286046985.8,P
1587290555.6,286046989.9,P
1587290575.5,286046996.4,N
1587290595.3,286046993.9,N
1587290615.1,286046991.8,N
1587290635.9,286046989.9,N
1587290655.7,286046980.5,Y
1587290675.5,286046990.7,P
1587290695.4,286046986.0,P
1587290715.2,286046986.1,P
1587290735.1,286046982.4,Y
1587290736.0,286046982.4,P
1587290755.8,286046997.8,N
1587290775.6,286046995.2,N
1587290795.5,286046997.7,N
1587290815.3,286047001.5,N
1587290835.2,286047006.8,N
1587290855.0,286047009.5,N
1587290855.9,286047009.5,N
1587290875.7,286047003.4,N
1587290895.6,286046998.9,N
1587290915.4,286046997.3,N
1587290935.3,286046995.7,N
1587290955.1,286046993.9,N
1587290975.8,286046990.2,N
1587290995.7,286046987.8,N
1587291015.5,286046988.4,N
1587291035.4,286046986.4,N
1587291055.2,286046988.0,N
1587291075.0,286046985.8,N
1587291075.9,286046985.8,N
1587291095.8,286046988.4,N
1587291115.6,286046990.7,N
1587291135.5,286046987.7,N
1587291155.3,286046985.4,N
1587291175.1,286046989.2,N
1587291195.9,286046993.5,N
1587291215.7,286046996.4,N
1587291235.5,286046989.1,N
1587291255.4,286046988.5,N
1587291275.2,286046990.1,N
1587291295.1,286046995.9,N
1587291296.0,286046995.9,N
1587291315.8,286046993.2,N
1587291335.6,286046990.6,N
1587291355.5,286046999.1,N
1587291375.3,286047003.3,N
1587291395.1,286047001.0,N
1587291415.9,286047005.3,N
1587291435.7,286047009.2,N
1587291455.6,286047002.7,N
1587291475.4,286046997.0,N
1587291495.2,286046999.6,N
1587291515.1,286046999.5,N
1587291516.0,286046999.5,N
1587291535.8,286047001.4,N
1587291555.6,286046999.9,N
1587291575.5,286046995.1,N
1587291595.3,286046991.6,N
1587291615.2,286046990.7,N
1587291635.9,286046988.8,N
1587291655.7,286046990.8,N
1587291675.6,286046991.8,N
1587291695.4,286046991.4,N
1587291715.2,286046986.6,N
1587291735.1,286046982.7,Y
1587291736.0,286046982.7,P
1587291785.9,286046977.7,E
1587291795.8,286046986.3,N
1587291815.6,286046993.6,P
1587291835.5,286046999.6,N
1587291855.3,286047000.8,N
1587291875.1,286047003.3,N
1587291895.9,286047006.1,N
1587291915.7,286047007.8,N
1587291935.5,286047012.7,N
1587291955.4,286047013.7,N
1587291975.2,286047015.5,N
1587291995.1,286047014.4,N
1587291996.0,286047014.4,N
1587292015.8,286047013.0,N
1587292035.7,286047011.3,N
1587292055.5,286047012.2,N
1587292075.3,286047013.3,N
1587292095.2,286047012.0,N
1587292115.0,286047002.0,N
1587292115.9,286047002.0,N
1587292135.8,286047002.4,N
1587292155.6,286047009.6,N
1587292175.4,286047012.6,N
1587292195.3,286047015.5,N
1587292215.1,286047015.0,N
1587292235.8,286047010.9,N
1587292255.7,286047008.3,N
1587292275.5,286047005.6,N
1587292295.4,286046999.7,N
1587292315.2,286047003.5,N
1587292335.0,286047001.5,N
1587292335.9,286047001.5,N
1587292355.8,286047000.8,N
1587292375.6,286046998.6,N
1587292395.4,286046996.8,N
1587292415.3,286046992.4,N
1587292435.1,286046989.4,N
1587292455.9,286046989.1,N
1587292475.7,286046986.0,N
1587292495.5,286046991.5,N
1587292515.4,286046987.0,N
1587292535.2,286046984.0,N
1587292555.0,286046987.5,N
1587292555.9,286046987.5,N
1587292575.8,286046984.3,N
1587292595.6,286046985.9,N
1587292615.5,286046986.8,N
1587292635.3,286046986.2,N
1587292655.1,286046983.9,N
1587292675.9,286046984.7,N
1587292695.7,286046987.6,N
1587292715.5,286046988.0,N
1587292735.4,286046986.8,N
1587292755.2,286046986.9,N
1587292775.1,286046993.8,N
1587292776.0,286046993.8,N
1587292795.8,286046996.1,N
1587292815.6,286046995.0,N
1587292835.5,286046994.4,N
1587292855.3,286046993.2,N
1587292875.1,286046987.8,N
1587292895.9,286046988.0,N
1587292915.7,286046990.4,N
1587292935.6,286046992.0,N
1587292955.4,286046987.6,Y
1587292975.2,286046998.9,P
1587292995.1,286046996.9,N
1587292996.0,286046996.9,N
1587293015.8,286046997.8,N
1587293035.7,286047011.9,Y
1587293055.5,286046995.7,P
1587293075.3,286046993.6,P
1587293095.2,286046991.8,P
1587293115.9,286046994.3,Y
1587293135.7,286047000.3,P
1587293155.6,286047000.5,N
1587293175.4,286047002.6,N
1587293195.3,286047001.2,N
1587293215.1,286046998.9,N
1587293216.0,286046998.9,N
1587293235.8,286046999.3,N
1587293255.7,286047001.2,N
1587293275.5,286047002.0,N
1587293295.3,286047002.5,N
1587293315.2,286047004.8,N
1587293335.0,286047002.9,N
1587293335.9,286047002.9,N
1587293355.8,286047005.8,N
1587293375.6,286047005.6,N
1587293395.4,286047009.0,Y
1587293415.3,286047004.5,P
1587293435.1,286047007.6,P
1587293455.8,286047008.1,P
1587293475.7,286047008.2,Y
1587293495.5,286047007.5,P
1587293515.4,286047004.9,P
1587293535.2,286047003.7,P
1587293555.0,286047002.5,N
1587293555.9,286047002.5,N
1587293575.8,286046998.8,N
1587293595.6,286046999.1,N
1587293615.5,286047001.0,N
1587293635.3,286046996.6,N
1587293655.1,286047001.4,N
1587293675.9,286047006.6,N
1587293695.7,286047007.2,N
1587293715.5,286047003.9,N
1587293735.4,286047002.2,N
1587293755.2,286046999.8,N
1587293775.0,286047001.2,N
1587293776.0,286047001.2,N
1587293795.8,286046998.1,N
1587293815.6,286047001.3,N
1587293835.5,286047005.3,N
1587293855.3,286047003.0,N
1587293875.1,286046999.5,N
1587293895.9,286046995.1,N
1587293915.7,286046997.8,N
1587293935.6,286046995.9,N
1587293955.4,286046993.3,N
1587293975.2,286046997.8,N
1587293995.1,286046993.4,N
1587293996.0,286046993.4,N
